PBO Station Position Time Series. Reference Frame : NAM14
Format Version,1.1.1
4-character ID,WLWY
Station name,WLWY_EBRY_WY1999
Begin Date, 2001-07-02
End Date, 2023-06-26
Release Date, 2023-06-27
Reference position, 44.6395178347 North Latitude, -110.2866553070 East Longitude, 2643.13141 meters elevation,
Date, North (mm), East (mm), Vertical (mm), North Std. Deviation (mm), East Std. Deviation (mm),              Vertical Std. Deviation (mm), Quality,
2001-07-02,0.00, 0.00, 0.00, 3.72, 3.00, 14.12, repro,
2001-07-03,-3.21, 0.61, -0.00, 3.78, 3.14, 14.46, repro,
2001-07-04,-1.69, 0.28, -12.33, 3.85, 3.05, 15.00, repro,
2001-07-05,-0.14, 2.62, 8.26, 3.88, 3.11, 15.26, repro,
2001-07-06,-3.53, -0.99, 21.76, 3.83, 3.26, 15.27, repro,
2001-07-07,-0.56, 1.39, -7.97, 3.82, 3.08, 14.46, repro,
2001-07-08,0.55, -0.64, 8.80, 3.90, 3.09, 14.85, repro,
2001-07-09,-1.91, 0.56, -12.41, 3.82, 3.16, 14.82, repro,
2001-07-10,-0.88, -1.00, -10.09, 4.48, 3.62, 16.88, repro,
2001-07-11,-1.32, -0.90, 5.78, 3.80, 3.05, 14.46, repro,
2001-07-12,-2.66, -0.79, -0.33, 3.77, 3.13, 14.52, repro,
2001-07-13,-0.83, -0.91, -4.99, 3.90, 3.08, 14.45, repro,
2001-07-14,-1.18, 0.94, 0.32, 3.92, 3.15, 14.56, repro,
2001-07-15,-1.17, -0.95, -5.37, 3.83, 3.00, 14.04, repro,
2001-07-16,-0.97, 2.90, 3.32, 3.98, 3.18, 15.18, repro,
2001-07-17,0.09, 1.42, 6.39, 3.70, 2.95, 13.41, repro,
2001-07-18,0.73, 2.96, -1.11, 4.04, 3.14, 14.35, repro,
2001-07-19,-2.48, 2.22, -6.60, 3.93, 3.03, 13.90, repro,
2001-07-20,1.17, 3.23, -1.51, 4.50, 3.33, 15.58, repro,
2001-07-21,-1.37, 1.51, -1.24, 3.96, 3.21, 14.49, repro,
2001-07-22,-1.05, -0.32, 8.83, 3.90, 3.09, 13.94, repro,
2001-07-23,-1.45, -0.14, 6.71, 4.15, 3.22, 14.66, repro,
2001-07-24,0.97, -0.13, -0.20, 3.89, 3.16, 14.29, repro,
2001-07-25,0.77, -1.27, 3.75, 4.02, 3.05, 13.99, repro,
2001-07-26,0.85, 1.49, 5.59, 4.46, 3.27, 15.19, repro,
2001-07-27,-0.95, 2.53, 4.73, 4.04, 3.17, 13.97, repro,
2001-08-01,-2.46, 1.51, 0.69, 3.91, 2.93, 13.16, repro,
2001-08-02,0.01, 0.51, -2.47, 3.85, 2.99, 13.53, repro,
2001-08-03,-1.41, 1.11, 14.77, 3.85, 3.00, 13.22, repro,
2001-08-04,-4.02, -0.35, 11.16, 3.96, 3.00, 13.45, repro,
2001-08-05,-0.55, 0.24, 2.95, 4.06, 3.01, 13.57, repro,
2001-08-06,-0.62, -0.39, 0.82, 4.15, 3.13, 13.87, repro,
2001-08-07,-2.20, -0.28, 5.70, 4.08, 3.06, 14.03, repro,
2001-08-08,-2.32, 0.49, 0.11, 4.14, 3.23, 14.12, repro,
2001-08-09,-3.41, 2.18, 1.06, 4.28, 3.31, 15.46, repro,
2001-08-10,-2.98, -0.87, 6.02, 4.15, 3.09, 14.01, repro,
2001-08-11,-2.01, 1.30, 7.42, 4.19, 3.16, 14.72, repro,
2001-08-12,-1.55, 1.66, 10.22, 4.14, 3.03, 13.83, repro,
2001-08-13,-1.78, 3.10, 2.19, 4.48, 3.32, 15.29, repro,
2001-08-14,0.88, 1.13, 9.83, 4.62, 3.58, 14.94, repro,
2001-08-15,3.18, -1.69, 9.27, 3.90, 3.00, 13.51, repro,
2001-08-16,-0.30, 2.30, 5.02, 4.08, 3.17, 14.21, repro,
2001-08-17,-1.85, 3.98, 15.92, 4.43, 3.38, 16.02, repro,
2001-08-18,-1.35, 2.41, 5.28, 4.16, 3.39, 14.61, repro,
2001-08-19,-2.97, 1.81, 10.83, 3.91, 3.01, 13.58, repro,
2001-08-20,1.29, -0.64, 4.95, 4.49, 3.49, 14.57, repro,
2001-08-21,-0.81, 2.03, 4.35, 4.87, 3.75, 15.67, repro,
2001-08-22,-0.02, 1.22, 11.03, 4.11, 3.16, 14.33, repro,
2001-08-23,1.14, 0.90, 8.51, 3.91, 2.96, 13.41, repro,
2001-08-24,-1.14, 2.62, 16.15, 4.51, 3.56, 14.81, repro,
2001-08-25,-0.40, 0.94, 7.52, 4.33, 3.38, 15.41, repro,
2001-08-26,-1.84, 3.39, -0.53, 4.61, 3.54, 14.94, repro,
2001-08-27,1.19, 2.32, -9.38, 4.22, 3.18, 14.46, repro,
2001-08-28,-0.34, 1.68, 4.94, 5.09, 4.00, 15.62, repro,
2001-08-29,0.63, 2.54, -7.10, 4.07, 3.07, 13.52, repro,
2001-08-30,1.61, 4.02, -9.22, 3.99, 3.05, 13.40, repro,
2001-08-31,-0.79, 4.83, 7.64, 6.80, 4.52, 17.66, repro,
2001-09-01,-0.83, 0.53, 2.01, 4.32, 3.19, 14.04, repro,
2001-09-02,1.14, 1.31, 0.02, 4.68, 3.46, 14.10, repro,
2001-09-03,-0.37, 1.85, 2.01, 4.45, 3.25, 14.32, repro,
2001-09-04,-0.99, 2.31, -0.76, 4.34, 3.14, 14.13, repro,
2001-09-05,-0.81, 3.67, -1.03, 4.73, 3.69, 14.73, repro,
2001-09-06,1.33, 0.44, 8.75, 4.03, 2.98, 13.33, repro,
2001-09-07,1.71, 3.72, -6.81, 3.85, 2.84, 12.99, repro,
2001-09-08,-0.39, 2.05, 1.57, 4.04, 3.00, 13.22, repro,
2001-09-09,0.86, 1.79, -2.47, 5.11, 3.67, 14.88, repro,
2001-09-10,0.73, 2.48, -2.02, 3.96, 2.93, 13.19, repro,
2001-09-11,2.62, 2.06, -4.39, 4.60, 3.31, 14.40, repro,
2001-09-12,0.24, 2.01, 1.74, 3.99, 2.85, 13.42, repro,
2001-09-13,3.35, 1.09, -12.05, 4.04, 2.93, 13.47, repro,
2001-09-14,2.64, 2.33, -10.10, 3.84, 2.81, 12.58, repro,
2001-09-16,-0.03, 2.64, 13.82, 4.33, 3.19, 13.85, repro,
2001-09-17,-2.50, 2.32, 15.61, 4.04, 3.10, 13.23, repro,
2001-09-18,1.01, 0.93, -0.80, 4.07, 3.11, 13.14, repro,
2001-09-19,3.40, 0.34, -1.75, 4.20, 3.10, 13.32, repro,
2001-09-20,3.51, 1.09, 7.08, 4.19, 3.04, 13.55, repro,
2001-09-21,0.42, 3.65, -0.94, 3.85, 2.86, 12.76, repro,
2001-09-22,2.46, 1.46, 6.87, 3.79, 2.92, 12.66, repro,
2001-09-23,3.38, 2.13, 0.21, 4.11, 3.05, 12.98, repro,
2001-09-24,2.65, 1.98, 1.63, 3.97, 2.86, 13.01, repro,
2001-09-25,0.56, 1.65, 7.58, 4.20, 3.10, 13.19, repro,
2001-09-26,1.56, 0.36, 17.06, 3.74, 2.80, 12.29, repro,
2001-09-27,2.40, 0.19, 10.97, 4.07, 3.06, 12.98, repro,
2001-09-28,0.97, 2.42, 11.61, 4.13, 3.03, 13.02, repro,
2001-09-29,0.69, 0.85, 17.25, 4.29, 3.27, 13.56, repro,
2001-09-30,1.74, 0.38, -3.48, 4.04, 3.09, 13.29, repro,
2001-10-01,-0.88, 1.28, 10.83, 3.84, 2.85, 12.62, repro,
2001-10-02,-1.11, -0.11, 12.01, 4.01, 2.97, 13.05, repro,
2001-10-03,0.07, 1.37, 9.66, 4.67, 3.57, 15.86, repro,
2001-10-04,-0.10, 1.25, 7.98, 3.96, 2.93, 13.00, repro,
2001-10-05,1.29, 1.60, 7.06, 4.06, 3.04, 13.24, repro,
2001-10-06,1.77, -0.70, 8.34, 4.28, 3.11, 13.37, repro,
2001-10-07,1.14, 3.03, 13.19, 4.51, 3.35, 13.97, repro,
2001-10-08,0.24, 1.88, 10.71, 3.83, 2.83, 12.40, repro,
2001-10-09,2.58, 0.42, 10.40, 3.96, 2.77, 12.30, repro,
2001-10-10,0.52, 2.29, 1.50, 4.12, 2.98, 13.17, repro,
2001-10-11,2.01, 2.80, 11.17, 4.21, 3.12, 13.44, repro,
2001-10-12,-0.27, 0.79, 4.27, 3.99, 2.90, 12.71, repro,
2001-10-13,-0.43, 2.62, 18.84, 4.26, 2.99, 12.92, repro,
2001-10-14,0.49, 3.35, 16.52, 4.14, 2.88, 12.72, repro,
2001-10-15,-0.16, 3.03, -0.41, 4.06, 2.83, 12.73, repro,
2001-10-16,0.78, 3.08, -9.95, 4.39, 3.10, 13.49, repro,
2001-10-17,2.37, 0.76, 6.58, 4.84, 3.33, 14.95, repro,
2001-10-18,1.52, 2.20, -3.84, 4.42, 3.27, 14.35, repro,
2001-10-19,0.94, 2.26, 10.53, 4.48, 3.23, 13.66, repro,
2001-10-20,1.99, 3.00, 2.63, 4.24, 2.92, 13.21, repro,
2001-10-21,2.42, 1.17, -1.46, 4.36, 3.02, 13.47, repro,
2001-10-22,3.36, 0.46, -1.78, 4.98, 3.05, 14.14, repro,
2001-10-23,1.17, 6.13, 20.83, 4.14, 2.78, 12.55, repro,
2001-10-24,-0.10, 2.98, 4.81, 4.26, 2.99, 13.19, repro,
2001-10-25,0.18, 3.51, -3.53, 4.55, 3.01, 13.55, repro,
2001-10-26,0.72, 1.19, -6.61, 4.75, 3.11, 14.03, repro,
2001-10-27,-1.17, 2.19, 0.60, 4.78, 3.28, 14.49, repro,
2001-10-28,1.56, 1.97, -3.75, 5.04, 3.31, 15.88, repro,
2001-10-29,0.54, 3.25, -13.32, 4.42, 2.97, 13.25, repro,
2001-10-30,-0.65, 3.78, 1.30, 4.54, 3.26, 13.83, repro,
2001-10-31,-0.88, 3.80, 11.56, 4.24, 2.77, 12.74, repro,
2001-11-01,0.24, 1.27, -3.18, 4.76, 3.43, 16.62, repro,
2001-11-02,-2.37, 0.31, -5.60, 4.44, 2.95, 13.44, repro,
2001-11-03,-0.29, -0.11, -9.04, 4.52, 3.03, 13.78, repro,
2001-11-04,0.69, 3.57, -9.40, 4.32, 2.91, 13.31, repro,
2001-11-05,0.26, 1.88, -10.38, 4.36, 3.10, 13.61, repro,
2001-11-06,-0.56, 0.06, -10.45, 4.72, 3.51, 16.29, repro,
2001-11-07,3.48, 2.56, -18.25, 4.58, 3.26, 14.06, repro,
2001-11-08,2.43, 0.62, -11.80, 4.67, 3.29, 14.34, repro,
2001-11-09,1.38, 2.35, 2.39, 4.29, 2.82, 13.42, repro,
2001-11-10,0.67, 2.31, -3.65, 4.05, 2.69, 12.63, repro,
2001-11-11,1.33, 1.60, -8.68, 4.08, 2.71, 12.82, repro,
2001-11-12,1.36, 1.47, -12.84, 4.16, 2.76, 13.02, repro,
2001-11-13,-1.50, 0.14, -10.31, 4.81, 2.85, 14.22, repro,
2001-11-14,-3.02, -0.13, 2.65, 4.74, 2.82, 13.99, repro,
2001-11-15,-2.74, 3.34, -9.70, 4.24, 2.92, 13.46, repro,
2001-11-16,-0.39, -0.04, -6.81, 4.16, 3.02, 13.95, repro,
2001-11-17,1.40, 0.90, -13.36, 4.20, 2.87, 13.79, repro,
2001-11-18,0.04, 3.06, -12.42, 4.23, 2.81, 13.38, repro,
2001-11-19,1.33, 3.09, -12.39, 4.11, 2.78, 13.18, repro,
2001-11-20,2.33, 1.77, -12.38, 4.58, 3.14, 14.88, repro,
2001-11-21,4.14, 2.88, -8.54, 4.21, 2.93, 14.09, repro,
2001-11-22,-0.72, 2.91, 4.20, 4.21, 2.92, 13.75, repro,
2001-11-23,1.17, 2.71, -2.95, 4.21, 2.92, 13.87, repro,
2001-11-24,2.06, 2.62, -16.02, 5.94, 3.99, 20.86, repro,
2001-11-25,3.25, 1.95, -9.05, 4.48, 3.17, 15.04, repro,
2001-11-26,0.87, 1.33, -13.21, 4.21, 2.91, 13.63, repro,
2001-11-27,-0.66, 0.57, -11.03, 4.43, 3.00, 14.53, repro,
2001-11-28,-1.93, 0.48, -9.74, 4.21, 2.94, 13.83, repro,
2001-11-29,-2.01, 1.20, -1.11, 4.15, 2.85, 13.39, repro,
2001-11-30,-1.21, 0.40, -3.77, 4.45, 2.99, 14.12, repro,
2001-12-01,0.22, 3.00, -1.38, 4.27, 2.89, 13.57, repro,
2001-12-02,1.17, 2.10, 9.41, 4.46, 3.27, 15.16, repro,
2001-12-03,2.12, 2.86, -6.53, 4.39, 2.97, 14.06, repro,
2001-12-04,0.05, 1.65, -12.61, 4.41, 3.05, 14.66, repro,
2001-12-05,3.74, 4.79, -6.44, 4.22, 2.84, 13.48, repro,
2001-12-06,-0.29, 5.40, -12.01, 4.33, 2.86, 13.50, repro,
2001-12-07,1.04, 3.01, -19.76, 4.39, 2.93, 13.61, repro,
2001-12-08,-0.76, 2.73, -13.34, 4.42, 2.94, 13.94, repro,
2001-12-09,1.03, 2.23, -5.72, 4.44, 2.94, 13.85, repro,
2001-12-10,-0.25, 1.88, -6.62, 4.80, 3.28, 15.22, repro,
2001-12-11,-0.26, 2.88, -5.42, 4.53, 2.97, 14.16, repro,
2001-12-12,1.85, 2.37, -7.97, 4.56, 2.96, 14.34, repro,
2001-12-13,-1.17, 1.60, -4.85, 4.38, 2.82, 13.13, repro,
2001-12-14,1.02, 3.31, -3.29, 4.28, 2.80, 12.83, repro,
2001-12-15,-0.87, 1.96, -3.22, 4.37, 2.81, 13.24, repro,
2001-12-16,0.34, 2.40, -18.37, 4.38, 2.87, 13.03, repro,
2001-12-17,0.83, 5.24, -13.73, 4.54, 3.15, 14.22, repro,
2001-12-18,0.38, 4.44, -6.40, 4.55, 3.24, 14.70, repro,
2001-12-19,0.63, 4.20, -16.85, 4.35, 2.82, 13.02, repro,
2001-12-20,1.41, 3.03, -20.61, 4.50, 3.08, 14.40, repro,
2001-12-21,1.93, 2.49, -5.31, 4.60, 3.04, 14.17, repro,
2001-12-22,3.51, 1.99, -17.72, 4.23, 2.86, 13.06, repro,
2001-12-23,3.02, 2.37, -23.65, 4.29, 3.01, 13.95, repro,
2001-12-24,1.05, 1.53, -28.74, 4.35, 3.05, 14.24, repro,
2001-12-25,3.67, 1.82, -19.61, 4.55, 3.11, 14.54, repro,
2001-12-26,1.77, 1.16, -19.56, 4.30, 2.83, 13.25, repro,
2001-12-27,2.59, 1.43, -12.60, 4.15, 2.83, 12.97, repro,
2001-12-28,1.92, 0.29, -18.96, 4.12, 2.91, 13.37, repro,
2001-12-29,2.08, 1.08, -21.05, 4.08, 2.90, 13.29, repro,
2001-12-30,0.51, 1.99, -16.32, 4.00, 2.83, 12.86, repro,
2001-12-31,2.61, 2.95, -17.70, 4.34, 3.16, 14.41, repro,
2002-01-01,1.89, 1.44, -27.44, 4.51, 3.21, 15.15, repro,
2002-01-02,2.76, 1.73, -20.14, 4.47, 3.16, 14.77, repro,
2002-01-03,0.97, 1.69, -10.82, 4.34, 3.01, 14.35, repro,
2002-01-04,3.53, 0.26, -17.86, 4.08, 2.86, 13.03, repro,
2002-01-05,2.99, 2.61, -18.58, 4.12, 2.93, 13.53, repro,
2002-01-06,1.93, 0.91, -13.65, 4.18, 2.96, 13.89, repro,
2002-01-07,0.52, 1.83, -13.26, 4.73, 3.82, 15.44, repro,
2002-01-08,0.55, 1.49, -8.58, 4.16, 2.98, 13.84, repro,
2002-01-09,1.03, 0.23, -4.82, 4.25, 3.05, 14.19, repro,
2002-01-10,2.16, -0.65, -17.72, 4.14, 2.92, 13.44, repro,
2002-01-11,2.35, 0.52, -20.04, 4.18, 2.91, 13.44, repro,
2002-01-12,1.88, -0.82, -14.45, 4.43, 3.15, 15.16, repro,
2002-01-13,2.18, -1.60, -9.23, 4.38, 3.17, 14.53, repro,
2002-01-14,2.29, 1.57, -9.96, 4.42, 3.18, 15.04, repro,
2002-01-15,3.23, 1.51, -21.85, 4.00, 2.84, 13.13, repro,
2002-01-16,2.60, -0.09, -24.98, 4.12, 3.02, 13.48, repro,
2002-01-17,3.42, 0.81, -22.05, 4.34, 3.19, 14.50, repro,
2002-01-18,2.95, 0.32, -19.80, 4.29, 3.20, 14.54, repro,
2002-01-19,3.01, 0.05, -17.95, 4.28, 3.20, 14.46, repro,
2002-01-20,2.08, 2.01, -10.39, 3.98, 2.90, 12.82, repro,
2002-01-21,2.55, 1.82, -4.83, 4.09, 2.86, 12.89, repro,
2002-01-22,1.14, 1.04, -0.69, 4.18, 2.94, 13.48, repro,
2002-01-23,2.44, 0.26, -13.29, 3.95, 2.89, 12.85, repro,
2002-01-24,1.23, 0.32, -14.70, 4.08, 3.01, 13.46, repro,
2002-01-25,2.22, -0.59, -20.87, 4.00, 2.93, 12.79, repro,
2002-01-26,-0.33, 1.60, -5.08, 3.98, 2.93, 12.81, repro,
2002-01-27,2.24, 1.56, -17.31, 4.17, 3.02, 13.26, repro,
2002-01-28,0.49, 0.69, -20.30, 4.08, 3.00, 13.18, repro,
2002-01-29,2.81, -0.40, -27.48, 4.09, 3.04, 13.33, repro,
2002-01-30,3.04, -0.15, -31.61, 3.89, 2.97, 12.85, repro,
2002-01-31,4.38, 0.97, -24.87, 4.06, 3.01, 13.21, repro,
2002-02-01,2.70, -0.12, -34.21, 4.09, 3.09, 13.40, repro,
2002-02-02,2.88, 0.65, -27.34, 4.05, 3.06, 13.52, repro,
2002-02-03,2.02, 0.40, -17.89, 3.84, 2.93, 12.65, repro,
2002-02-04,1.75, 0.76, -18.01, 4.12, 3.27, 13.97, repro,
2002-02-05,1.08, 1.22, -17.63, 4.39, 3.70, 16.17, repro,
2002-02-06,-0.41, 0.11, 0.03, 4.14, 3.44, 14.51, repro,
2002-02-07,1.30, 0.18, -13.63, 4.07, 3.16, 13.64, repro,
2002-02-08,2.12, -0.76, -14.58, 4.05, 3.26, 14.05, repro,
2002-02-09,1.40, -0.32, -31.04, 4.04, 3.23, 14.04, repro,
2002-02-10,-0.35, 0.13, -31.21, 3.77, 3.05, 12.74, repro,
2002-02-11,1.02, -0.28, -31.68, 3.87, 3.24, 13.63, repro,
2002-02-12,1.81, -0.25, -21.48, 4.17, 3.41, 14.99, repro,
2002-02-13,1.53, 0.72, -19.41, 4.35, 3.73, 16.11, repro,
2002-02-14,2.68, -0.18, -23.84, 4.03, 3.54, 14.62, repro,
2002-02-15,2.21, -0.66, -24.88, 4.12, 3.52, 14.85, repro,
2002-02-16,2.46, 1.72, -15.49, 4.05, 3.53, 14.72, repro,
2002-02-17,1.39, 0.66, -9.91, 4.06, 3.64, 15.12, repro,
2002-02-18,1.24, 0.72, -5.57, 3.88, 3.15, 13.31, repro,
2002-02-19,0.12, 1.64, -15.16, 5.37, 3.85, 19.09, repro,
2002-02-20,0.06, 2.74, -17.86, 5.35, 3.84, 18.63, repro,
2002-02-21,0.77, 0.97, -17.16, 4.12, 3.36, 14.07, repro,
2002-02-22,-0.48, 0.54, -24.23, 3.90, 3.18, 13.48, repro,
2002-02-23,-0.30, -1.72, -19.31, 3.93, 3.30, 13.79, repro,
2002-02-24,1.13, -4.70, -35.52, 4.15, 3.55, 14.85, repro,
2002-02-25,0.93, -1.12, -38.55, 3.99, 3.21, 13.19, repro,
2002-02-26,1.57, 1.72, -34.76, 4.03, 3.51, 14.25, repro,
2002-02-27,0.97, -0.27, -32.76, 4.08, 3.53, 14.41, repro,
2002-02-28,1.29, -1.51, -30.17, 3.96, 3.09, 12.73, repro,
2002-03-01,3.03, 0.25, -25.43, 4.01, 3.62, 14.71, repro,
2002-03-02,1.50, -1.07, -31.29, 4.06, 3.22, 13.54, repro,
2002-03-03,2.38, 1.18, -30.63, 3.81, 3.06, 12.74, repro,
2002-03-04,-0.01, -0.97, -23.60, 3.93, 3.06, 12.84, repro,
2002-03-05,0.68, 0.72, -23.55, 4.03, 3.46, 14.09, repro,
2002-03-06,3.85, 1.22, -22.92, 3.77, 3.01, 12.55, repro,
2002-03-07,2.99, 4.92, -11.66, 3.84, 3.12, 12.92, repro,
2002-03-08,1.64, 0.81, -9.65, 3.82, 3.06, 12.91, repro,
2002-03-09,-1.34, 1.22, -19.19, 3.73, 3.00, 12.25, repro,
2002-03-10,-0.57, 0.97, -9.75, 4.07, 3.31, 14.36, repro,
2002-03-11,-0.19, 0.64, -13.94, 4.32, 3.47, 14.77, repro,
2002-03-12,0.99, 5.39, -3.78, 3.94, 3.18, 13.32, repro,
2002-03-13,2.35, 1.49, -18.32, 3.91, 3.10, 13.15, repro,
2002-03-14,1.66, 2.23, -16.39, 4.12, 3.42, 14.34, repro,
2002-03-15,1.87, 1.27, -14.44, 3.85, 3.10, 12.94, repro,
2002-03-16,2.67, 1.96, -20.25, 4.00, 3.17, 13.54, repro,
2002-03-17,2.04, 1.09, -20.77, 4.12, 3.45, 14.22, repro,
2002-03-18,2.67, 1.71, -20.81, 4.16, 3.32, 14.51, repro,
2002-03-19,1.37, 1.34, -17.73, 4.65, 3.68, 16.33, repro,
2002-03-20,-0.70, 0.05, -5.81, 3.91, 3.11, 13.22, repro,
2002-03-21,1.29, 0.26, -29.53, 3.89, 3.06, 13.45, repro,
2002-03-22,2.10, -0.09, -24.81, 3.96, 3.22, 13.63, repro,
2002-03-23,1.50, -1.09, -16.35, 4.11, 3.34, 14.11, repro,
2002-03-24,1.35, -0.03, -28.26, 4.16, 3.28, 14.08, repro,
2002-03-25,-0.12, -0.41, -19.25, 3.83, 3.00, 12.91, repro,
2002-03-26,-2.41, -0.17, -22.75, 3.96, 3.17, 13.41, repro,
2002-03-27,0.67, 1.70, -17.07, 3.87, 3.10, 13.52, repro,
2002-03-28,0.46, 0.04, -17.03, 4.13, 3.28, 14.19, repro,
2002-03-29,0.94, -0.24, -22.89, 4.20, 3.43, 14.81, repro,
2002-03-30,-0.28, -0.46, -15.50, 3.97, 3.24, 13.82, repro,
2002-03-31,1.36, 1.20, -8.63, 4.25, 3.58, 15.16, repro,
2002-04-01,1.47, 0.86, -19.05, 3.78, 3.05, 13.28, repro,
2002-04-02,4.80, -0.34, -29.19, 4.23, 3.57, 15.95, repro,
2002-04-03,2.25, 2.53, -22.31, 4.21, 3.70, 15.64, repro,
2002-04-04,1.60, 1.27, -25.89, 4.29, 3.72, 15.85, repro,
2002-04-05,4.04, 1.81, -30.02, 4.81, 4.06, 17.84, repro,
2002-04-06,1.89, 1.45, -17.93, 3.87, 3.15, 13.50, repro,
2002-04-07,1.27, 2.08, -5.87, 3.89, 3.19, 13.87, repro,
2002-04-08,1.29, 0.60, -22.49, 3.97, 3.31, 14.38, repro,
2002-04-09,0.27, -0.05, -24.36, 4.43, 4.03, 16.75, repro,
2002-04-10,1.36, -1.08, -24.77, 3.97, 3.19, 13.77, repro,
2002-04-11,3.06, 1.46, -23.77, 4.13, 3.39, 14.38, repro,
2002-04-12,2.31, 0.30, -23.60, 4.27, 3.59, 15.39, repro,
2002-04-13,2.97, -0.61, -19.90, 4.02, 3.23, 13.82, repro,
2002-04-14,3.85, 1.41, -11.36, 3.94, 3.14, 13.59, repro,
2002-04-15,3.74, 1.46, -12.31, 4.48, 3.73, 16.43, repro,
2002-04-16,2.39, -1.00, -13.95, 4.16, 3.33, 14.48, repro,
2002-04-17,4.89, -0.19, -21.76, 4.37, 3.52, 15.68, repro,
2002-04-18,3.14, -1.66, -23.80, 4.32, 3.43, 15.11, repro,
2002-04-19,1.41, -1.36, -21.36, 4.29, 3.46, 14.91, repro,
2002-04-20,0.63, -1.18, -13.65, 4.27, 3.42, 14.79, repro,
2002-04-21,-0.01, -1.09, -10.74, 4.39, 3.62, 15.32, repro,
2002-04-22,3.00, -1.03, -20.35, 4.23, 3.43, 14.85, repro,
2002-04-23,4.15, 1.52, -17.23, 4.33, 3.34, 14.83, repro,
2002-04-24,1.19, -2.65, -24.74, 4.14, 3.24, 13.80, repro,
2002-04-25,0.27, -2.55, -24.48, 4.68, 4.07, 17.21, repro,
2002-04-26,0.98, -2.36, -20.94, 4.51, 3.63, 16.54, repro,
2002-04-27,1.42, -0.29, -17.26, 4.29, 3.42, 14.56, repro,
2002-04-28,1.02, -0.19, -21.01, 4.07, 3.24, 13.87, repro,
2002-04-29,2.66, -0.39, -31.65, 4.14, 3.19, 14.29, repro,
2002-04-30,3.71, 0.62, -19.27, 4.21, 3.36, 14.25, repro,
2002-05-01,2.76, -1.94, -22.25, 4.00, 3.14, 13.53, repro,
2002-05-02,1.43, 0.06, -19.80, 4.02, 3.14, 13.57, repro,
2002-05-03,0.51, 1.83, -15.84, 4.14, 3.45, 14.68, repro,
2002-05-04,-0.65, -0.22, -26.91, 4.03, 3.21, 14.26, repro,
2002-05-05,0.29, 1.25, -21.37, 3.89, 3.09, 13.56, repro,
2002-05-06,2.46, 1.56, -25.00, 4.12, 3.26, 14.20, repro,
2002-05-07,2.41, 2.40, -26.06, 4.34, 3.50, 15.08, repro,
2002-05-08,1.28, -0.79, -33.38, 3.85, 3.10, 13.38, repro,
2002-05-09,0.88, -0.73, -26.79, 3.95, 3.15, 14.08, repro,
2002-05-10,1.07, 1.07, -20.88, 4.06, 3.47, 14.78, repro,
2002-05-11,2.26, -0.42, -25.61, 4.20, 3.56, 15.88, repro,
2002-05-12,1.63, 0.26, -24.47, 3.98, 3.40, 14.64, repro,
2002-05-13,2.16, 0.29, -30.57, 4.00, 3.49, 15.12, repro,
2002-05-14,3.79, 0.09, -18.28, 3.97, 3.28, 14.43, repro,
2002-05-15,1.47, -0.30, -12.60, 4.00, 3.34, 14.55, repro,
2002-05-16,0.33, -0.68, -9.75, 4.03, 3.51, 15.66, repro,
2002-05-17,-0.42, -0.06, -20.51, 3.86, 3.28, 14.60, repro,
2002-05-18,1.69, 0.46, -25.87, 4.12, 3.44, 15.22, repro,
2002-05-19,1.42, 0.20, -23.19, 3.83, 3.21, 13.99, repro,
2002-05-20,1.37, -0.95, -12.92, 3.85, 3.42, 15.10, repro,
2002-05-21,1.31, 0.22, -8.65, 3.86, 3.40, 15.09, repro,
2002-05-22,2.66, -3.00, -17.55, 3.87, 3.45, 15.38, repro,
2002-05-23,0.09, -1.63, -13.91, 3.81, 3.32, 14.86, repro,
2002-05-24,-1.01, 0.13, -17.48, 3.78, 3.31, 14.57, repro,
2002-05-25,-0.65, -1.71, -15.77, 3.83, 3.34, 14.72, repro,
2002-05-26,0.36, -0.87, -18.86, 3.85, 3.34, 15.14, repro,
2002-05-27,1.07, -2.21, -11.02, 3.83, 3.31, 14.90, repro,
2002-05-28,0.97, -1.82, -14.88, 3.80, 3.28, 14.80, repro,
2002-05-29,-0.62, -1.74, -20.07, 3.89, 3.53, 15.69, repro,
2002-05-30,-1.89, -1.12, -11.26, 3.83, 3.34, 14.95, repro,
2002-05-31,0.29, -1.80, -11.59, 3.80, 3.26, 14.16, repro,
2002-06-01,0.04, -1.31, -8.78, 3.92, 3.44, 15.45, repro,
2002-06-02,2.16, -2.86, -11.70, 3.80, 3.13, 14.07, repro,
2002-06-03,0.72, -1.21, -19.65, 3.82, 3.27, 14.54, repro,
2002-06-04,0.19, 0.81, -7.78, 3.84, 3.33, 14.83, repro,
2002-06-05,-1.75, -2.30, -15.68, 3.88, 3.18, 14.28, repro,
2002-06-06,-0.57, -1.54, -7.12, 3.97, 3.09, 14.03, repro,
2002-06-07,2.57, 0.74, -18.49, 3.87, 3.19, 14.19, repro,
2002-06-08,2.34, 0.44, -18.80, 3.82, 3.09, 14.09, repro,
2002-06-09,2.49, -2.19, -20.75, 3.78, 3.14, 14.18, repro,
2002-06-10,1.95, -1.69, -15.01, 3.89, 3.24, 14.80, repro,
2002-06-11,1.95, -0.97, -7.83, 3.75, 3.13, 14.05, repro,
2002-06-12,1.62, -0.96, -11.44, 3.72, 3.29, 14.27, repro,
2002-06-13,3.83, -2.61, -13.84, 3.80, 3.14, 14.06, repro,
2002-06-14,0.30, -1.59, -4.79, 3.99, 3.41, 14.97, repro,
2002-06-15,1.57, -1.80, -10.68, 3.74, 3.11, 14.22, repro,
2002-06-16,1.24, -1.06, -8.36, 3.62, 2.99, 13.41, repro,
2002-06-17,-0.30, -1.66, 0.82, 3.64, 3.05, 13.75, repro,
2002-06-18,3.95, 1.26, -1.95, 3.74, 3.07, 14.08, repro,
2002-06-19,0.60, -1.77, 0.96, 3.73, 3.19, 14.59, repro,
2002-06-20,-1.08, -0.94, -8.95, 3.72, 3.03, 14.34, repro,
2002-06-21,-2.34, -1.71, 0.50, 3.75, 3.13, 14.73, repro,
2002-06-22,0.07, -1.55, -10.73, 3.57, 2.96, 13.86, repro,
2002-06-23,2.05, -1.56, -12.32, 3.65, 2.85, 13.64, repro,
2002-06-24,1.99, -1.74, -9.80, 3.74, 3.10, 14.53, repro,
2002-06-25,0.27, -2.33, -9.86, 3.67, 2.93, 14.35, repro,
2002-06-26,0.39, -1.03, -6.96, 3.87, 3.42, 15.75, repro,
2002-06-27,-0.15, -0.96, -12.83, 3.88, 3.35, 15.77, repro,
2002-06-28,-0.54, -2.21, 0.48, 3.88, 3.27, 15.14, repro,
2002-06-29,-0.49, -0.38, 3.52, 3.63, 2.97, 13.74, repro,
2002-06-30,0.96, 0.53, -10.89, 3.83, 3.16, 14.60, repro,
2002-07-01,0.14, -1.77, -11.40, 3.75, 2.98, 14.16, repro,
2002-07-02,-0.92, -2.76, -7.22, 3.73, 2.92, 13.76, repro,
2002-07-03,2.31, -1.49, -11.72, 3.82, 3.02, 14.00, repro,
2002-07-04,3.19, -1.36, -4.52, 3.86, 3.09, 14.59, repro,
2002-07-05,0.13, -0.44, 1.64, 3.85, 3.00, 14.46, repro,
2002-07-06,-0.30, 0.09, -10.81, 3.71, 2.87, 13.32, repro,
2002-07-07,0.24, -1.33, -2.62, 3.81, 2.97, 14.34, repro,
2002-07-08,2.73, -1.43, -4.68, 3.82, 2.94, 14.02, repro,
2002-07-09,0.97, -0.49, -13.99, 4.04, 3.65, 15.68, repro,
2002-07-10,0.40, -1.66, -0.64, 4.23, 3.17, 16.01, repro,
2002-07-11,2.53, 1.99, -8.67, 3.93, 3.04, 14.08, repro,
2002-07-12,0.74, 0.06, -14.19, 4.03, 2.93, 13.61, repro,
2002-07-13,0.55, -1.74, -7.71, 3.63, 2.80, 12.36, repro,
2002-07-14,-0.10, -1.49, 1.37, 3.72, 2.85, 12.97, repro,
2002-07-15,1.17, -3.12, -4.50, 4.09, 3.24, 14.56, repro,
2002-07-16,0.24, 0.18, 4.56, 3.83, 2.84, 13.00, repro,
2002-07-17,0.73, -0.23, 2.91, 3.84, 3.03, 13.41, repro,
2002-07-18,0.90, -1.07, -5.11, 4.13, 3.03, 13.83, repro,
2002-07-19,-1.12, 0.20, 1.18, 3.75, 2.98, 13.51, repro,
2002-07-20,-0.20, -0.81, -3.18, 3.80, 2.85, 12.93, repro,
2002-07-21,0.55, 0.50, 6.14, 4.00, 3.14, 13.99, repro,
2002-07-22,0.93, 0.80, -1.60, 3.72, 2.79, 12.65, repro,
2002-07-23,-0.48, 0.55, -10.86, 3.79, 2.85, 12.87, repro,
2002-07-24,0.30, 0.31, -11.25, 4.07, 3.53, 15.40, repro,
2002-07-25,-3.75, -2.62, -15.36, 3.70, 2.72, 12.60, repro,
2002-07-26,-1.54, -0.36, -4.89, 3.89, 2.99, 13.56, repro,
2002-07-27,1.25, -0.65, 2.80, 3.93, 2.88, 13.47, repro,
2002-07-28,-0.34, -1.07, -1.38, 3.87, 2.98, 13.89, repro,
2002-07-29,0.08, -2.63, 0.45, 3.81, 3.02, 13.46, repro,
2002-07-30,0.31, -0.90, -12.90, 3.97, 3.13, 14.17, repro,
2002-07-31,2.32, -0.83, -8.93, 3.80, 2.92, 13.38, repro,
2002-08-01,2.38, 1.28, -16.55, 3.77, 2.83, 13.25, repro,
2002-08-02,1.44, 4.21, -7.08, 3.96, 3.10, 14.01, repro,
2002-08-03,1.38, 0.38, -10.20, 3.75, 2.77, 12.79, repro,
2002-08-04,1.67, 0.95, -11.04, 3.94, 3.09, 14.09, repro,
2002-08-05,3.18, 1.68, -8.96, 3.78, 2.84, 13.45, repro,
2002-08-06,2.26, 1.03, -8.29, 3.65, 2.75, 12.75, repro,
2002-08-07,2.11, 1.76, -5.14, 4.11, 3.25, 14.61, repro,
2002-08-08,1.21, 1.21, -11.87, 3.81, 2.94, 13.41, repro,
2002-08-09,0.70, 0.49, -9.39, 3.76, 2.90, 13.52, repro,
2002-08-10,1.07, 1.63, -13.96, 3.79, 2.86, 13.55, repro,
2002-08-11,-0.19, 2.46, -5.01, 3.67, 2.74, 12.75, repro,
2002-08-12,2.22, 1.71, -10.09, 3.91, 3.04, 13.95, repro,
2002-08-13,0.24, 4.16, -0.52, 4.18, 3.56, 14.87, repro,
2002-08-14,0.60, 1.66, -5.58, 3.90, 3.10, 14.08, repro,
2002-08-15,0.56, 1.77, -10.26, 3.81, 3.01, 13.38, repro,
2002-08-16,1.19, 4.05, -3.47, 3.93, 3.09, 13.78, repro,
2002-08-17,0.57, 1.00, -2.56, 4.39, 3.66, 15.31, repro,
2002-08-18,2.00, 2.00, -1.15, 4.12, 3.32, 15.06, repro,
2002-08-19,1.25, 1.73, -1.52, 3.92, 3.12, 14.14, repro,
2002-08-20,2.85, 1.34, -14.73, 3.90, 2.87, 13.56, repro,
2002-08-21,-0.76, 2.41, -21.89, 3.93, 2.84, 13.29, repro,
2002-08-22,2.29, 1.12, -7.90, 3.92, 2.87, 13.36, repro,
2002-08-23,0.44, 2.33, -14.39, 4.13, 3.22, 14.52, repro,